Time,TemperatureF,DewpointF,PressureIn,WindDirection,WindDirectionDegrees,WindSpeedMPH,WindSpeedGustMPH,Humidity,HourlyPrecipIn,Conditions,Clouds,dailyrainin,SoftwareType,DateUTC
2013-05-30 00:01:00,54.4,53.3,29.72,ENE,74,0.0,0.0,96,0.00,OVC,,0.00,WeatherDisplay:10.37,2013-05-30 05:01:00,
2013-05-30 00:06:00,54.4,53.3,29.72,ENE,74,0.0,0.0,96,0.00,OVC,,0.00,WeatherDisplay:10.37,2013-05-30 05:06:00,
2013-05-30 00:11:00,54.4,53.3,29.72,ENE,74,0.0,0.0,96,0.00,OVC,,0.00,WeatherDisplay:10.37,2013-05-30 05:11:00,
2013-05-30 00:16:00,54.4,53.3,29.72,ENE,74,0.0,0.0,96,0.00,OVC,,0.00,WeatherDisplay:10.37,2013-05-30 05:16:00,
2013-05-30 00:22:00,54.4,53.3,29.72,ENE,74,0.0,0.0,96,0.00,OVC,,0.00,WeatherDisplay:10.37,2013-05-30 05:22:00,
2013-05-30 00:27:00,54.4,53.3,29.72,ENE,74,0.0,0.0,96,0.00,OVC,,0.00,WeatherDisplay:10.37,2013-05-30 05:27:00,
2013-05-30 00:32:00,54.4,53.3,29.72,ENE,74,0.0,0.0,96,0.00,OVC,,0.00,WeatherDisplay:10.37,2013-05-30 05:32:00,
2013-05-30 00:37:00,54.4,53.3,29.72,ENE,74,0.0,0.0,96,0.00,OVC,,0.00,WeatherDisplay:10.37,2013-05-30 05:37:00,
2013-05-30 00:42:00,54.4,53.3,29.72,ENE,74,0.0,0.0,96,0.00,OVC,,0.00,WeatherDisplay:10.37,2013-05-30 05:42:00,
2013-05-30 00:47:00,54.4,53.3,29.72,ENE,74,0.0,0.0,96,0.00,OVC,,0.00,WeatherDisplay:10.37,2013-05-30 05:47:00,
2013-05-30 00:52:00,54.4,53.3,29.72,ENE,74,0.0,0.0,96,0.00,OVC,,0.00,WeatherDisplay:10.37,2013-05-30 05:52:00,
2013-05-30 00:57:00,54.4,53.3,29.72,ENE,74,0.0,0.0,96,0.00,OVC,,0.00,WeatherDisplay:10.37,2013-05-30 05:57:00,
2013-05-30 01:02:00,54.4,53.3,29.72,ENE,74,0.0,0.0,96,0.00,-RA,,0.00,WeatherDisplay:10.37,2013-05-30 06:02:00,
2013-05-30 01:07:00,54.4,53.3,29.72,ENE,74,0.0,0.0,96,0.00,-RA,,0.00,WeatherDisplay:10.37,2013-05-30 06:07:00,
2013-05-30 01:12:00,54.4,53.3,29.72,ENE,74,0.0,0.0,96,0.00,-RA,,0.00,WeatherDisplay:10.37,2013-05-30 06:12:00,
2013-05-30 01:17:00,54.4,53.3,29.72,ENE,74,0.0,0.0,96,0.00,-RA,,0.00,WeatherDisplay:10.37,2013-05-30 06:17:00,
2013-05-30 02:05:00,64.5,63.0,29.64,South,170,8.0,15.0,95,0.00,CLR,,0.00,WeatherDisplay:10.37,2013-05-30 07:05:00,
2013-05-30 02:10:00,64.5,63.0,29.64,South,183,3.0,11.0,95,0.00,CLR,,0.00,WeatherDisplay:10.37,2013-05-30 07:10:00,
2013-05-30 02:15:00,64.5,63.0,29.63,South,182,7.0,13.0,95,0.00,CLR,,0.00,WeatherDisplay:10.37,2013-05-30 07:15:00,
2013-05-30 02:20:00,64.5,63.0,29.63,South,177,5.0,10.0,95,0.00,CLR,,0.00,WeatherDisplay:10.37,2013-05-30 07:20:00,
2013-05-30 02:25:00,64.5,63.0,29.63,South,172,5.0,12.0,95,0.00,CLR,,0.00,WeatherDisplay:10.37,2013-05-30 07:25:00,
2013-05-30 02:30:00,64.7,63.2,29.63,South,172,5.0,12.0,95,0.00,CLR,,0.00,WeatherDisplay:10.37,2013-05-30 07:30:00,
2013-05-30 02:35:00,64.8,63.3,29.63,South,176,5.0,12.0,95,0.00,CLR,,0.00,WeatherDisplay:10.37,2013-05-30 07:35:00,
2013-05-30 02:40:00,64.8,63.3,29.63,South,173,3.0,12.0,95,0.00,CLR,,0.00,WeatherDisplay:10.37,2013-05-30 07:40:00,
2013-05-30 02:45:00,65.0,63.5,29.62,South,176,5.0,12.0,95,0.00,CLR,,0.00,WeatherDisplay:10.37,2013-05-30 07:45:00,
2013-05-30 02:50:00,65.2,63.7,29.62,South,180,7.0,15.0,95,0.00,CLR,,0.00,WeatherDisplay:10.37,2013-05-30 07:50:00,
2013-05-30 02:55:00,65.2,63.7,29.62,South,177,5.0,12.0,95,0.00,CLR,,0.00,WeatherDisplay:10.37,2013-05-30 07:55:00,
2013-05-30 03:00:00,65.3,63.8,29.62,South,173,6.0,12.0,95,0.00,CLR,,0.00,WeatherDisplay:10.37,2013-05-30 08:00:00,
2013-05-30 03:05:00,65.5,64.0,29.62,South,172,3.0,11.0,95,0.00,CLR,,0.00,WeatherDisplay:10.37,2013-05-30 08:05:00,
2013-05-30 03:10:00,65.5,64.0,29.62,South,171,5.0,12.0,95,0.00,CLR,,0.00,WeatherDisplay:10.37,2013-05-30 08:10:00,
2013-05-30 03:15:00,65.5,63.7,29.60,South,178,6.0,15.0,94,0.00,CLR,,0.00,WeatherDisplay:10.37,2013-05-30 08:15:00,
2013-05-30 03:20:00,65.5,63.7,29.60,South,182,3.0,13.0,94,0.00,CLR,,0.00,WeatherDisplay:10.37,2013-05-30 08:20:00,
2013-05-30 03:25:00,65.5,63.7,29.60,South,179,5.0,12.0,94,0.00,CLR,,0.00,WeatherDisplay:10.37,2013-05-30 08:25:00,
2013-05-30 03:30:00,65.5,63.7,29.59,South,178,5.0,9.0,94,0.00,CLR,,0.00,WeatherDisplay:10.37,2013-05-30 08:30:00,
2013-05-30 03:35:00,65.5,63.7,29.59,South,177,3.0,7.0,94,0.00,CLR,,0.00,WeatherDisplay:10.37,2013-05-30 08:35:00,
2013-05-30 03:40:00,65.3,63.5,29.59,South,176,5.0,8.0,94,0.00,CLR,,0.00,WeatherDisplay:10.37,2013-05-30 08:40:00,
2013-05-30 03:45:00,65.3,63.5,29.59,South,175,5.0,10.0,94,0.00,CLR,,0.00,WeatherDisplay:10.37,2013-05-30 08:45:00,
2013-05-30 03:50:00,65.3,63.5,29.59,South,173,3.0,9.0,94,0.00,CLR,,0.00,WeatherDisplay:10.37,2013-05-30 08:50:00,
2013-05-30 03:55:00,65.3,63.5,29.59,South,170,3.0,11.0,94,0.00,CLR,,0.00,WeatherDisplay:10.37,2013-05-30 08:55:00,
2013-05-30 04:00:00,65.3,63.2,29.58,South,170,1.0,6.0,93,0.00,CLR,,0.00,WeatherDisplay:10.37,2013-05-30 09:00:00,
2013-05-30 04:05:00,65.3,63.2,29.58,South,170,2.0,7.0,93,0.00,CLR,,0.00,WeatherDisplay:10.37,2013-05-30 09:05:00,
2013-05-30 04:10:00,65.2,63.1,29.58,SSE,166,1.0,5.0,93,0.00,CLR,,0.00,WeatherDisplay:10.37,2013-05-30 09:10:00,
2013-05-30 04:15:00,65.2,63.1,29.58,South,173,1.0,10.0,93,0.00,CLR,,0.00,WeatherDisplay:10.37,2013-05-30 09:15:00,
2013-05-30 04:20:00,65.2,63.1,29.58,South,178,0.0,7.0,93,0.00,CLR,,0.00,WeatherDisplay:10.37,2013-05-30 09:20:00,
2013-05-30 04:25:00,65.2,63.1,29.58,SSE,159,1.0,5.0,93,0.00,CLR,,0.00,WeatherDisplay:10.37,2013-05-30 09:25:00,
2013-05-30 04:30:00,65.0,62.9,29.56,SSE,159,3.0,11.0,93,0.00,CLR,,0.00,WeatherDisplay:10.37,2013-05-30 09:30:00,
2013-05-30 04:35:00,65.2,63.4,29.56,SSE,166,5.0,13.0,94,0.00,CLR,,0.00,WeatherDisplay:10.37,2013-05-30 09:35:00,
2013-05-30 04:40:00,65.2,63.1,29.56,South,173,2.0,10.0,93,0.00,CLR,,0.00,WeatherDisplay:10.37,2013-05-30 09:40:00,
2013-05-30 04:45:00,65.3,63.2,29.56,South,169,6.0,13.0,93,0.00,CLR,,0.00,WeatherDisplay:10.37,2013-05-30 09:45:00,
2013-05-30 04:50:00,65.3,63.2,29.56,SSE,166,3.0,11.0,93,0.00,CLR,,0.00,WeatherDisplay:10.37,2013-05-30 09:50:00,
2013-05-30 04:55:00,65.3,62.9,29.56,South,171,5.0,14.0,92,0.00,CLR,,0.00,WeatherDisplay:10.37,2013-05-30 09:55:00,
2013-05-30 05:00:00,65.5,63.1,29.56,South,176,7.0,20.0,92,0.00,CLR,,0.00,WeatherDisplay:10.37,2013-05-30 10:00:00,
2013-05-30 05:05:00,65.6,62.9,29.56,South,182,5.0,11.0,91,0.00,CLR,,0.00,WeatherDisplay:10.37,2013-05-30 10:05:00,
2013-05-30 05:10:00,65.6,62.9,29.56,South,182,7.0,14.0,91,0.00,CLR,,0.00,WeatherDisplay:10.37,2013-05-30 10:10:00,
2013-05-30 05:15:00,65.8,63.1,29.56,South,178,5.0,14.0,91,0.00,CLR,,0.00,WeatherDisplay:10.37,2013-05-30 10:15:00,
2013-05-30 05:20:00,66.0,63.3,29.56,South,176,6.0,14.0,91,0.00,CLR,,0.00,WeatherDisplay:10.37,2013-05-30 10:20:00,
2013-05-30 05:25:00,66.1,63.1,29.56,South,178,7.0,16.0,90,0.00,CLR,,0.00,WeatherDisplay:10.37,2013-05-30 10:25:00,
2013-05-30 05:30:00,66.3,63.0,29.56,South,180,7.0,16.0,89,0.00,CLR,,0.00,WeatherDisplay:10.37,2013-05-30 10:30:00,
2013-05-30 05:35:00,66.4,63.1,29.56,South,180,12.0,17.0,89,0.00,CLR,,0.00,WeatherDisplay:10.37,2013-05-30 10:35:00,
2013-05-30 05:40:00,66.6,63.3,29.56,South,180,8.0,18.0,89,0.00,CLR,,0.00,WeatherDisplay:10.37,2013-05-30 10:40:00,
2013-05-30 05:45:00,66.6,62.9,29.55,South,180,8.0,16.0,88,0.00,CLR,,0.00,WeatherDisplay:10.37,2013-05-30 10:45:00,
2013-05-30 05:50:00,66.6,62.9,29.55,South,180,12.0,17.0,88,0.00,CLR,,0.00,WeatherDisplay:10.37,2013-05-30 10:50:00,
2013-05-30 05:55:00,66.8,63.1,29.55,South,180,7.0,19.0,88,0.00,CLR,,0.00,WeatherDisplay:10.37,2013-05-30 10:55:00,
2013-05-30 06:00:00,66.9,63.2,29.55,South,177,12.0,20.0,88,0.00,CLR,,0.00,WeatherDisplay:10.37,2013-05-30 11:00:00,
2013-05-30 06:05:00,67.1,63.1,29.55,South,170,8.0,16.0,87,0.00,CLR,,0.00,WeatherDisplay:10.37,2013-05-30 11:05:00,
2013-05-30 06:10:00,67.3,63.3,29.55,South,169,9.0,14.0,87,0.00,CLR,,0.00,WeatherDisplay:10.37,2013-05-30 11:10:00,
2013-05-30 06:15:00,67.4,63.4,29.55,South,169,10.0,19.0,87,0.00,CLR,,0.00,WeatherDisplay:10.37,2013-05-30 11:15:00,
2013-05-30 06:20:00,67.4,63.1,29.55,South,173,5.0,16.0,86,0.00,CLR,,0.00,WeatherDisplay:10.37,2013-05-30 11:20:00,
2013-05-30 06:25:00,67.4,63.1,29.55,South,178,6.0,11.0,86,0.00,CLR,,0.00,WeatherDisplay:10.37,2013-05-30 11:25:00,
2013-05-30 06:30:00,67.4,63.1,29.55,South,173,6.0,16.0,86,0.00,CLR,,0.00,WeatherDisplay:10.37,2013-05-30 11:30:00,
2013-05-30 06:35:00,67.4,63.1,29.55,South,178,8.0,15.0,86,0.00,CLR,,0.00,WeatherDisplay:10.37,2013-05-30 11:35:00,
2013-05-30 06:40:00,67.4,63.1,29.55,South,185,5.0,12.0,86,0.00,CLR,,0.00,WeatherDisplay:10.37,2013-05-30 11:40:00,
2013-05-30 06:45:00,67.4,63.1,29.55,South,180,5.0,12.0,86,0.00,CLR,,0.00,WeatherDisplay:10.37,2013-05-30 11:45:00,
2013-05-30 06:50:00,67.4,63.1,29.55,South,181,5.0,14.0,86,0.00,CLR,,0.00,WeatherDisplay:10.37,2013-05-30 11:50:00,
2013-05-30 06:55:00,67.4,63.1,29.55,South,181,7.0,13.0,86,0.00,CLR,,0.00,WeatherDisplay:10.37,2013-05-30 11:55:00,
2013-05-30 07:00:00,67.4,63.1,29.55,South,176,6.0,17.0,86,0.00,CLR,,0.00,WeatherDisplay:10.37,2013-05-30 12:00:00,
2013-05-30 07:05:00,67.6,63.3,29.55,South,176,5.0,13.0,86,0.00,CLR,,0.00,WeatherDisplay:10.37,2013-05-30 12:05:00,
2013-05-30 07:10:00,67.6,62.9,29.55,South,177,7.0,20.0,85,0.00,CLR,,0.00,WeatherDisplay:10.37,2013-05-30 12:10:00,
2013-05-30 07:15:00,67.8,63.1,29.54,South,177,7.0,16.0,85,0.00,CLR,,0.00,WeatherDisplay:10.37,2013-05-30 12:15:00,
2013-05-30 07:20:00,67.9,62.9,29.54,South,176,3.0,15.0,84,0.00,CLR,,0.00,WeatherDisplay:10.37,2013-05-30 12:20:00,
2013-05-30 07:25:00,68.3,63.3,29.54,South,178,8.0,19.0,84,0.00,CLR,,0.00,WeatherDisplay:10.37,2013-05-30 12:25:00,
2013-05-30 07:30:00,68.3,62.9,29.55,South,180,7.0,20.0,83,0.00,CLR,,0.00,WeatherDisplay:10.37,2013-05-30 12:30:00,
2013-05-30 07:35:00,68.4,63.0,29.55,South,180,8.0,14.0,83,0.00,CLR,,0.00,WeatherDisplay:10.37,2013-05-30 12:35:00,
2013-05-30 07:40:00,68.4,63.0,29.55,South,175,7.0,16.0,83,0.00,CLR,,0.00,WeatherDisplay:10.37,2013-05-30 12:40:00,
2013-05-30 07:45:00,68.6,63.2,29.55,South,171,3.0,21.0,83,0.00,CLR,,0.00,WeatherDisplay:10.37,2013-05-30 12:45:00,
2013-05-30 07:50:00,68.6,63.2,29.55,South,174,10.0,17.0,83,0.00,CLR,,0.00,WeatherDisplay:10.37,2013-05-30 12:50:00,
2013-05-30 07:55:00,68.8,63.1,29.55,South,179,12.0,18.0,82,0.00,CLR,,0.00,WeatherDisplay:10.37,2013-05-30 12:55:00,
2013-05-30 08:00:00,68.8,62.7,29.56,South,178,12.0,22.0,81,0.00,CLR,,0.00,WeatherDisplay:10.37,2013-05-30 13:00:00,
2013-05-30 08:05:00,68.9,62.8,29.56,South,174,9.0,18.0,81,0.00,CLR,,0.00,WeatherDisplay:10.37,2013-05-30 13:05:00,
2013-05-30 08:10:00,69.1,63.0,29.56,South,176,8.0,22.0,81,0.00,CLR,,0.00,WeatherDisplay:10.37,2013-05-30 13:10:00,
2013-05-30 08:15:00,69.1,63.0,29.57,South,176,9.0,21.0,81,0.00,CLR,,0.00,WeatherDisplay:10.37,2013-05-30 13:15:00,
2013-05-30 08:20:00,69.4,63.3,29.57,South,173,8.0,17.0,81,0.00,CLR,,0.00,WeatherDisplay:10.37,2013-05-30 13:20:00,
2013-05-30 08:25:00,69.9,63.4,29.57,South,176,9.0,16.0,80,0.00,CLR,,0.00,WeatherDisplay:10.37,2013-05-30 13:25:00,
2013-05-30 08:30:00,70.6,63.4,29.57,South,170,10.0,22.0,78,0.00,CLR,,0.00,WeatherDisplay:10.37,2013-05-30 13:30:00,
2013-05-30 08:35:00,70.8,62.9,29.57,SSE,166,10.0,28.0,76,0.00,CLR,,0.00,WeatherDisplay:10.37,2013-05-30 13:35:00,
2013-05-30 08:40:00,71.1,63.1,29.57,SSE,168,14.0,21.0,76,0.00,CLR,,0.00,WeatherDisplay:10.37,2013-05-30 13:40:00,
2013-05-30 08:45:00,71.6,63.3,29.57,South,175,10.0,24.0,75,0.00,CLR,,0.00,WeatherDisplay:10.37,2013-05-30 13:45:00,
2013-05-30 08:50:00,71.8,63.4,29.57,South,176,12.0,20.0,75,0.00,CLR,,0.00,WeatherDisplay:10.37,2013-05-30 13:50:00,
2013-05-30 08:55:00,71.8,63.4,29.57,South,177,12.0,22.0,75,0.00,CLR,,0.00,WeatherDisplay:10.37,2013-05-30 13:55:00,
2013-05-30 09:00:00,71.6,62.5,29.57,South,185,8.0,20.0,73,0.00,CLR,,0.00,WeatherDisplay:10.37,2013-05-30 14:00:00,
2013-05-30 09:05:00,71.8,62.7,29.57,South,183,14.0,24.0,73,0.00,CLR,,0.00,WeatherDisplay:10.37,2013-05-30 14:05:00,
2013-05-30 09:10:00,71.8,61.9,29.57,South,178,15.0,27.0,71,0.00,CLR,,0.00,WeatherDisplay:10.37,2013-05-30 14:10:00,
2013-05-30 09:15:00,71.5,61.2,29.58,South,187,15.0,29.0,70,0.00,CLR,,0.00,WeatherDisplay:10.37,2013-05-30 14:15:00,
2013-05-30 09:20:00,71.1,60.8,29.58,South,187,16.0,23.0,70,0.00,CLR,,0.00,WeatherDisplay:10.37,2013-05-30 14:20:00,
2013-05-30 09:25:00,70.9,61.4,29.58,South,177,10.0,27.0,72,0.00,CLR,,0.00,WeatherDisplay:10.37,2013-05-30 14:25:00,
2013-05-30 09:30:00,70.8,61.3,29.58,South,180,13.0,22.0,72,0.00,CLR,,0.00,WeatherDisplay:10.37,2013-05-30 14:30:00,
2013-05-30 09:35:00,70.8,61.3,29.58,South,186,12.0,19.0,72,0.00,CLR,,0.00,WeatherDisplay:10.37,2013-05-30 14:35:00,
2013-05-30 09:40:00,70.8,61.3,29.58,SSW,196,10.0,19.0,72,0.00,CLR,,0.00,WeatherDisplay:10.37,2013-05-30 14:40:00,
2013-05-30 09:45:00,70.8,61.3,29.58,SSW,196,10.0,19.0,72,0.00,CLR,,0.00,WeatherDisplay:10.37,2013-05-30 14:45:00,
2013-05-30 09:50:00,70.4,60.9,29.58,South,190,12.0,26.0,72,0.00,CLR,,0.00,WeatherDisplay:10.37,2013-05-30 14:50:00,
2013-05-30 09:55:00,70.4,60.9,29.58,South,189,12.0,23.0,72,0.00,CLR,,0.00,WeatherDisplay:10.37,2013-05-30 14:55:00,
2013-05-30 10:00:00,70.4,61.3,29.57,South,185,7.0,17.0,73,0.00,CLR,,0.00,WeatherDisplay:10.37,2013-05-30 15:00:00,
2013-05-30 10:05:00,70.4,61.3,29.57,SSW,192,9.0,20.0,73,0.00,CLR,,0.00,WeatherDisplay:10.37,2013-05-30 15:05:00,
2013-05-30 10:10:00,70.3,61.2,29.57,SSW,202,12.0,23.0,73,0.00,CLR,,0.00,WeatherDisplay:10.37,2013-05-30 15:10:00,
2013-05-30 10:15:00,70.4,61.3,29.58,SSW,199,14.0,23.0,73,0.00,CLR,,0.00,WeatherDisplay:10.37,2013-05-30 15:15:00,
2013-05-30 10:20:00,70.4,60.9,29.58,South,191,13.0,22.0,72,0.00,CLR,,0.00,WeatherDisplay:10.37,2013-05-30 15:20:00,
2013-05-30 10:25:00,70.4,60.5,29.58,South,191,17.0,27.0,71,0.00,CLR,,0.00,WeatherDisplay:10.37,2013-05-30 15:25:00,
2013-05-30 10:30:00,70.6,60.3,29.58,SSW,199,15.0,26.0,70,0.00,CLR,,0.00,WeatherDisplay:10.37,2013-05-30 15:30:00,
2013-05-30 10:35:00,70.6,60.3,29.58,SSW,205,12.0,22.0,70,0.00,CLR,,0.00,WeatherDisplay:10.37,2013-05-30 15:35:00,
2013-05-30 10:40:00,70.6,60.7,29.58,SSW,197,9.0,23.0,71,0.00,CLR,,0.00,WeatherDisplay:10.37,2013-05-30 15:40:00,
2013-05-30 10:45:00,70.3,60.8,29.58,South,191,10.0,27.0,72,0.00,CLR,,0.00,WeatherDisplay:10.37,2013-05-30 15:45:00,
2013-05-30 10:50:00,69.9,60.5,29.58,South,187,12.0,21.0,72,0.00,CLR,,0.00,WeatherDisplay:10.37,2013-05-30 15:50:00,
2013-05-30 10:55:00,70.3,60.4,29.58,SSW,195,13.0,20.0,71,0.00,CLR,,0.00,WeatherDisplay:10.37,2013-05-30 15:55:00,
2013-05-30 11:00:00,70.4,60.5,29.58,SSW,201,15.0,22.0,71,0.00,CLR,,0.00,WeatherDisplay:10.37,2013-05-30 16:00:00,
2013-05-30 11:05:00,70.4,60.1,29.58,SSW,196,18.0,23.0,70,0.00,CLR,,0.00,WeatherDisplay:10.37,2013-05-30 16:05:00,
2013-05-30 11:10:00,70.8,60.5,29.58,SSW,194,12.0,22.0,70,0.00,CLR,,0.00,WeatherDisplay:10.37,2013-05-30 16:10:00,
2013-05-30 11:15:00,70.8,60.5,29.59,SSW,192,12.0,22.0,70,0.00,CLR,,0.00,WeatherDisplay:10.37,2013-05-30 16:15:00,
2013-05-30 11:20:00,70.6,60.3,29.59,South,189,13.0,24.0,70,0.00,CLR,,0.00,WeatherDisplay:10.37,2013-05-30 16:20:00,
2013-05-30 11:25:00,70.9,61.0,29.59,South,191,12.0,18.0,71,0.00,CLR,,0.00,WeatherDisplay:10.37,2013-05-30 16:25:00,
2013-05-30 11:30:00,71.3,61.0,29.58,SSW,200,10.0,22.0,70,0.00,CLR,,0.00,WeatherDisplay:10.37,2013-05-30 16:30:00,
2013-05-30 11:35:00,71.5,61.2,29.58,SSW,200,13.0,19.0,70,0.00,CLR,,0.00,WeatherDisplay:10.37,2013-05-30 16:35:00,
2013-05-30 11:40:00,71.5,61.2,29.58,SSW,195,14.0,23.0,70,0.00,CLR,,0.00,WeatherDisplay:10.37,2013-05-30 16:40:00,
2013-05-30 11:45:00,70.9,60.6,29.60,SSW,193,12.0,21.0,70,0.00,CLR,,0.00,WeatherDisplay:10.37,2013-05-30 16:45:00,
2013-05-30 11:50:00,70.6,60.7,29.60,SSW,197,7.0,23.0,71,0.00,CLR,,0.00,WeatherDisplay:10.37,2013-05-30 16:50:00,
2013-05-30 11:55:00,70.4,60.1,29.60,SSW,201,12.0,24.0,70,0.00,CLR,,0.00,WeatherDisplay:10.37,2013-05-30 16:55:00,
2013-05-30 12:00:00,70.3,60.1,29.59,SSW,194,13.0,22.0,70,0.00,CLR,,0.00,WeatherDisplay:10.37,2013-05-30 17:00:00,
2013-05-30 12:05:00,70.6,60.3,29.59,South,185,12.0,21.0,70,0.00,CLR,,0.00,WeatherDisplay:10.37,2013-05-30 17:05:00,
2013-05-30 12:10:00,70.9,60.6,29.59,South,188,15.0,24.0,70,0.00,CLR,,0.00,WeatherDisplay:10.37,2013-05-30 17:10:00,
2013-05-30 12:15:00,71.1,61.2,29.59,SSW,193,10.0,24.0,71,0.00,CLR,,0.00,WeatherDisplay:10.37,2013-05-30 17:15:00,
2013-05-30 12:20:00,71.1,61.2,29.59,South,186,12.0,20.0,71,0.00,CLR,,0.00,WeatherDisplay:10.37,2013-05-30 17:20:00,
2013-05-30 12:25:00,70.8,60.9,29.59,South,184,10.0,24.0,71,0.00,CLR,,0.00,WeatherDisplay:10.37,2013-05-30 17:25:00,
2013-05-30 12:30:00,70.6,60.7,29.59,South,182,8.0,25.0,71,0.00,CLR,,0.00,WeatherDisplay:10.37,2013-05-30 17:30:00,
2013-05-30 12:35:00,70.3,60.8,29.59,South,181,9.0,16.0,72,0.00,CLR,,0.00,WeatherDisplay:10.37,2013-05-30 17:35:00,
2013-05-30 12:40:00,70.1,60.3,29.59,South,185,12.0,18.0,71,0.00,CLR,,0.00,WeatherDisplay:10.37,2013-05-30 17:40:00,
2013-05-30 12:45:00,70.1,60.7,29.59,SSW,192,9.0,20.0,72,0.00,CLR,,0.00,WeatherDisplay:10.37,2013-05-30 17:45:00,
2013-05-30 12:50:00,70.1,59.9,29.59,SSW,194,15.0,23.0,70,0.00,CLR,,0.00,WeatherDisplay:10.37,2013-05-30 17:50:00,
2013-05-30 12:55:00,70.4,60.1,29.59,South,187,7.0,18.0,70,0.00,CLR,,0.00,WeatherDisplay:10.37,2013-05-30 17:55:00,
2013-05-30 13:00:00,70.8,60.1,29.59,South,180,10.0,22.0,69,0.00,CLR,,0.00,WeatherDisplay:10.37,2013-05-30 18:00:00,
2013-05-30 13:05:00,70.9,59.8,29.59,South,181,12.0,22.0,68,0.00,CLR,,0.00,WeatherDisplay:10.37,2013-05-30 18:05:00,
2013-05-30 13:10:00,70.9,59.8,29.59,SSW,192,16.0,25.0,68,0.00,CLR,,0.00,WeatherDisplay:10.37,2013-05-30 18:10:00,
2013-05-30 13:15:00,70.9,59.8,29.59,SSW,198,12.0,20.0,68,0.00,CLR,,0.00,WeatherDisplay:10.37,2013-05-30 18:15:00,
2013-05-30 13:20:00,72.0,60.4,29.59,SSW,198,12.0,16.0,67,0.00,CLR,,0.00,WeatherDisplay:10.37,2013-05-30 18:20:00,
2013-05-30 13:25:00,72.3,60.7,29.59,South,188,10.0,19.0,67,0.00,CLR,,0.00,WeatherDisplay:10.37,2013-05-30 18:25:00,
2013-05-30 13:30:00,73.3,61.3,29.58,South,176,5.0,19.0,66,0.00,CLR,,0.00,WeatherDisplay:10.37,2013-05-30 18:30:00,
2013-05-30 13:35:00,74.2,60.8,29.58,South,177,12.0,18.0,63,0.00,CLR,,0.00,WeatherDisplay:10.37,2013-05-30 18:35:00,
2013-05-30 13:40:00,73.9,61.0,29.58,South,183,12.0,21.0,64,0.00,CLR,,0.00,WeatherDisplay:10.37,2013-05-30 18:40:00,
2013-05-30 13:45:00,73.5,60.6,29.58,South,189,15.0,24.0,64,0.00,CLR,,0.00,WeatherDisplay:10.37,2013-05-30 18:45:00,
2013-05-30 13:50:00,73.3,59.5,29.58,South,189,10.0,21.0,62,0.00,CLR,,0.00,WeatherDisplay:10.37,2013-05-30 18:50:00,
2013-05-30 13:55:00,73.5,60.6,29.58,South,185,13.0,21.0,64,0.00,CLR,,0.00,WeatherDisplay:10.37,2013-05-30 18:55:00,
2013-05-30 14:00:00,73.9,61.0,29.58,South,182,10.0,23.0,64,0.00,CLR,,0.00,WeatherDisplay:10.37,2013-05-30 19:00:00,
2013-05-30 14:05:00,74.0,60.6,29.58,South,186,10.0,25.0,63,0.00,CLR,,0.00,WeatherDisplay:10.37,2013-05-30 19:05:00,
2013-05-30 14:10:00,74.4,61.0,29.58,South,191,12.0,24.0,63,0.00,CLR,,0.00,WeatherDisplay:10.37,2013-05-30 19:10:00,
2013-05-30 14:15:00,74.9,61.0,29.57,South,188,12.0,20.0,62,0.00,CLR,,0.00,WeatherDisplay:10.37,2013-05-30 19:15:00,
2013-05-30 14:20:00,74.6,60.7,29.57,South,181,12.0,23.0,62,0.00,CLR,,0.00,WeatherDisplay:10.37,2013-05-30 19:20:00,
2013-05-30 14:25:00,74.9,60.1,29.57,South,178,13.0,24.0,60,0.00,CLR,,0.00,WeatherDisplay:10.37,2013-05-30 19:25:00,
2013-05-30 14:30:00,74.9,60.1,29.56,South,188,16.0,26.0,60,0.00,CLR,,0.00,WeatherDisplay:10.37,2013-05-30 19:30:00,
2013-05-30 14:35:00,74.6,61.2,29.56,SSW,199,12.0,22.0,63,0.00,CLR,,0.00,WeatherDisplay:10.37,2013-05-30 19:35:00,
2013-05-30 14:40:00,75.6,61.2,29.56,SSW,197,7.0,20.0,61,0.00,CLR,,0.00,WeatherDisplay:10.37,2013-05-30 19:40:00,
2013-05-30 14:45:00,76.0,61.1,29.55,South,183,7.0,15.0,60,0.00,CLR,,0.00,WeatherDisplay:10.37,2013-05-30 19:45:00,
2013-05-30 14:50:00,76.7,61.8,29.55,South,187,8.0,18.0,60,0.00,CLR,,0.00,WeatherDisplay:10.37,2013-05-30 19:50:00,
2013-05-30 14:55:00,76.3,60.9,29.55,SSW,192,7.0,19.0,59,0.00,CLR,,0.00,WeatherDisplay:10.37,2013-05-30 19:55:00,
2013-05-30 15:00:00,76.3,61.4,29.54,South,189,9.0,22.0,60,0.00,CLR,,0.00,WeatherDisplay:10.37,2013-05-30 20:00:00,
2013-05-30 15:05:00,75.6,60.3,29.54,South,184,14.0,28.0,59,0.00,CLR,,0.00,WeatherDisplay:10.37,2013-05-30 20:05:00,
2013-05-30 15:10:00,75.6,61.7,29.54,South,180,9.0,17.0,62,0.00,CLR,,0.00,WeatherDisplay:10.37,2013-05-30 20:10:00,
2013-05-30 15:15:00,75.3,60.9,29.54,South,179,10.0,20.0,61,0.00,CLR,,0.00,WeatherDisplay:10.37,2013-05-30 20:15:00,
2013-05-30 15:20:00,75.3,60.9,29.54,South,181,9.0,19.0,61,0.00,CLR,,0.00,WeatherDisplay:10.37,2013-05-30 20:20:00,
2013-05-30 15:25:00,75.1,61.2,29.54,South,185,9.0,20.0,62,0.00,CLR,,0.00,WeatherDisplay:10.37,2013-05-30 20:25:00,
2013-05-30 15:30:00,75.1,61.2,29.53,South,190,12.0,22.0,62,0.00,CLR,,0.00,WeatherDisplay:10.37,2013-05-30 20:30:00,
2013-05-30 15:35:00,75.1,61.2,29.53,South,190,9.0,17.0,62,0.00,CLR,,0.00,WeatherDisplay:10.37,2013-05-30 20:35:00,
2013-05-30 15:40:00,75.4,61.9,29.53,South,189,7.0,17.0,63,0.00,CLR,,0.00,WeatherDisplay:10.37,2013-05-30 20:40:00,
2013-05-30 15:45:00,75.3,62.3,29.53,SSW,192,9.0,16.0,64,0.00,CLR,,0.00,WeatherDisplay:10.37,2013-05-30 20:45:00,
2013-05-30 15:50:00,74.9,60.5,29.53,South,178,13.0,21.0,61,0.00,CLR,,0.00,WeatherDisplay:10.37,2013-05-30 20:50:00,
2013-05-30 15:55:00,74.7,60.8,29.53,SSE,168,10.0,21.0,62,0.00,CLR,,0.00,WeatherDisplay:10.37,2013-05-30 20:55:00,
2013-05-30 16:00:00,74.9,61.0,29.52,South,176,14.0,23.0,62,0.00,CLR,,0.00,WeatherDisplay:10.37,2013-05-30 21:00:00,
2013-05-30 16:05:00,75.3,61.4,29.52,South,185,12.0,18.0,62,0.00,CLR,,0.00,WeatherDisplay:10.37,2013-05-30 21:05:00,
2013-05-30 16:10:00,76.1,62.1,29.52,South,180,12.0,20.0,62,0.00,CLR,,0.00,WeatherDisplay:10.37,2013-05-30 21:10:00,
2013-05-30 16:15:00,75.8,61.8,29.52,South,172,7.0,20.0,62,0.00,CLR,,0.00,WeatherDisplay:10.37,2013-05-30 21:15:00,
2013-05-30 16:20:00,75.1,61.6,29.52,South,174,7.0,14.0,63,0.00,CLR,,0.00,WeatherDisplay:10.37,2013-05-30 21:20:00,
2013-05-30 16:25:00,74.4,63.6,29.52,South,177,8.0,17.0,69,0.00,CLR,,0.00,WeatherDisplay:10.37,2013-05-30 21:25:00,
2013-05-30 16:30:00,72.8,64.8,29.53,South,179,2.0,15.0,76,0.02,RA,,0.02,WeatherDisplay:10.37,2013-05-30 21:30:00,
2013-05-30 16:35:00,70.6,64.8,29.53,South,185,6.0,14.0,82,0.07,RA,,0.07,WeatherDisplay:10.37,2013-05-30 21:35:00,
2013-05-30 16:40:00,69.4,64.7,29.53,South,181,2.0,12.0,85,0.07,RA,,0.09,WeatherDisplay:10.37,2013-05-30 21:40:00,
2013-05-30 16:45:00,69.8,66.1,29.51,South,189,2.0,6.0,88,0.02,RA,,0.09,WeatherDisplay:10.37,2013-05-30 21:45:00,
2013-05-30 16:50:00,70.4,67.3,29.51,South,176,0.0,7.0,90,0.00,CLR,,0.09,WeatherDisplay:10.37,2013-05-30 21:50:00,
2013-05-30 16:55:00,71.3,67.9,29.51,South,170,0.0,10.0,89,0.00,CLR,,0.09,WeatherDisplay:10.37,2013-05-30 21:55:00,
2013-05-30 17:00:00,71.3,67.2,29.51,South,180,1.0,6.0,87,0.00,CLR,,0.09,WeatherDisplay:10.37,2013-05-30 22:00:00,
2013-05-30 17:05:00,71.8,67.7,29.51,South,189,2.0,7.0,87,0.00,CLR,,0.09,WeatherDisplay:10.37,2013-05-30 22:05:00,
2013-05-30 17:10:00,71.8,66.7,29.51,South,187,7.0,11.0,84,0.00,CLR,,0.09,WeatherDisplay:10.37,2013-05-30 22:10:00,
2013-05-30 17:15:00,71.8,64.2,29.50,South,177,10.0,18.0,77,0.00,CLR,,0.09,WeatherDisplay:10.37,2013-05-30 22:15:00,
2013-05-30 17:20:00,72.5,63.7,29.50,South,174,9.0,13.0,74,0.00,CLR,,0.09,WeatherDisplay:10.37,2013-05-30 22:20:00,
2013-05-30 17:25:00,72.8,61.6,29.50,South,185,13.0,30.0,68,0.00,CLR,,0.09,WeatherDisplay:10.37,2013-05-30 22:25:00,
2013-05-30 17:30:00,73.3,62.1,29.51,South,189,12.0,23.0,68,0.00,CLR,,0.09,WeatherDisplay:10.37,2013-05-30 22:30:00,
2013-05-30 17:35:00,73.7,61.2,29.51,South,182,13.0,20.0,65,0.00,CLR,,0.09,WeatherDisplay:10.37,2013-05-30 22:35:00,
2013-05-30 17:40:00,73.3,60.8,29.51,South,186,12.0,25.0,65,0.00,CLR,,0.09,WeatherDisplay:10.37,2013-05-30 22:40:00,
2013-05-30 17:45:00,73.3,60.8,29.51,SSW,192,13.0,18.0,65,0.00,CLR,,0.09,WeatherDisplay:10.37,2013-05-30 22:45:00,
2013-05-30 17:50:00,73.2,61.2,29.51,South,184,8.0,19.0,66,0.00,CLR,,0.09,WeatherDisplay:10.37,2013-05-30 22:50:00,
2013-05-30 17:55:00,73.0,61.0,29.51,South,174,12.0,21.0,66,0.00,CLR,,0.09,WeatherDisplay:10.37,2013-05-30 22:55:00,
2013-05-30 18:00:00,72.7,61.5,29.51,South,180,8.0,24.0,68,0.00,CLR,,0.09,WeatherDisplay:10.37,2013-05-30 23:00:00,
2013-05-30 18:05:00,71.6,62.1,29.51,SSW,192,9.0,21.0,72,0.00,CLR,,0.09,WeatherDisplay:10.37,2013-05-30 23:05:00,
2013-05-30 18:10:00,70.3,62.0,29.51,SSW,194,12.0,20.0,75,0.00,CLR,,0.09,WeatherDisplay:10.37,2013-05-30 23:10:00,
2013-05-30 18:15:00,69.9,61.6,29.51,South,190,12.0,19.0,75,0.00,CLR,,0.09,WeatherDisplay:10.37,2013-05-30 23:15:00,
2013-05-30 18:20:00,69.6,61.7,29.51,South,189,13.0,18.0,76,0.00,CLR,,0.09,WeatherDisplay:10.37,2013-05-30 23:20:00,
2013-05-30 18:25:00,69.3,61.4,29.51,SSW,195,9.0,16.0,76,0.00,CLR,,0.09,WeatherDisplay:10.37,2013-05-30 23:25:00,
2013-05-30 18:30:00,69.1,61.2,29.50,SSW,196,7.0,18.0,76,0.00,CLR,,0.09,WeatherDisplay:10.37,2013-05-30 23:30:00,
2013-05-30 18:35:00,68.9,61.4,29.50,SSW,193,10.0,20.0,77,0.00,CLR,,0.09,WeatherDisplay:10.37,2013-05-30 23:35:00,
2013-05-30 18:40:00,68.8,61.3,29.50,SSW,197,12.0,18.0,77,0.00,CLR,,0.09,WeatherDisplay:10.37,2013-05-30 23:40:00,
2013-05-30 18:45:00,69.3,61.8,29.49,SSW,195,7.0,12.0,77,0.00,CLR,,0.09,WeatherDisplay:10.37,2013-05-30 23:45:00,
2013-05-30 18:50:00,69.8,61.9,29.49,SSW,195,7.0,12.0,76,0.00,CLR,,0.09,WeatherDisplay:10.37,2013-05-30 23:50:00,
2013-05-30 18:55:00,69.9,62.0,29.49,SSW,200,6.0,13.0,76,0.00,CLR,,0.09,WeatherDisplay:10.37,2013-05-30 23:55:00,
2013-05-30 19:00:00,70.1,61.8,29.49,SSW,196,6.0,13.0,75,0.00,CLR,,0.09,WeatherDisplay:10.37,2013-05-31 00:00:00,
2013-05-30 19:05:00,70.4,61.7,29.49,South,178,6.0,11.0,74,0.00,CLR,,0.09,WeatherDisplay:10.37,2013-05-31 00:05:00,
2013-05-30 19:10:00,70.6,61.9,29.49,SSE,167,6.0,14.0,74,0.00,CLR,,0.09,WeatherDisplay:10.37,2013-05-31 00:10:00,
2013-05-30 19:15:00,70.4,62.1,29.50,South,174,3.0,14.0,75,0.00,CLR,,0.09,WeatherDisplay:10.37,2013-05-31 00:15:00,
2013-05-30 19:20:00,70.3,62.0,29.50,South,183,3.0,15.0,75,0.00,CLR,,0.09,WeatherDisplay:10.37,2013-05-31 00:20:00,
2013-05-30 19:25:00,70.4,61.7,29.50,South,183,6.0,15.0,74,0.00,CLR,,0.09,WeatherDisplay:10.37,2013-05-31 00:25:00,
2013-05-30 19:30:00,70.4,62.1,29.50,South,177,3.0,13.0,75,0.00,CLR,,0.09,WeatherDisplay:10.37,2013-05-31 00:30:00,
2013-05-30 19:35:00,70.3,62.0,29.50,South,186,7.0,11.0,75,0.00,CLR,,0.09,WeatherDisplay:10.37,2013-05-31 00:35:00,
2013-05-30 19:40:00,70.1,62.2,29.50,SSW,193,3.0,12.0,76,0.00,CLR,,0.09,WeatherDisplay:10.37,2013-05-31 00:40:00,
2013-05-30 19:45:00,69.9,62.0,29.51,South,191,3.0,9.0,76,0.00,CLR,,0.09,WeatherDisplay:10.37,2013-05-31 00:45:00,
2013-05-30 19:50:00,69.8,62.3,29.51,South,182,5.0,10.0,77,0.00,CLR,,0.09,WeatherDisplay:10.37,2013-05-31 00:50:00,
2013-05-30 19:55:00,69.6,62.1,29.51,South,173,7.0,12.0,77,0.00,CLR,,0.09,WeatherDisplay:10.37,2013-05-31 00:55:00,
2013-05-30 20:00:00,69.6,62.1,29.51,South,177,6.0,11.0,77,0.00,CLR,,0.09,WeatherDisplay:10.37,2013-05-31 01:00:00,
2013-05-30 20:05:00,69.6,62.1,29.51,SSW,192,6.0,12.0,77,0.00,CLR,,0.09,WeatherDisplay:10.37,2013-05-31 01:05:00,
2013-05-30 20:10:00,69.6,62.4,29.51,SSW,199,6.0,10.0,78,0.00,CLR,,0.09,WeatherDisplay:10.37,2013-05-31 01:10:00,
2013-05-30 20:15:00,68.8,62.7,29.50,SSW,201,7.0,13.0,81,0.00,CLR,,0.09,WeatherDisplay:10.37,2013-05-31 01:15:00,
2013-05-30 20:20:00,68.1,62.7,29.50,SSW,207,3.0,11.0,83,0.00,CLR,,0.09,WeatherDisplay:10.37,2013-05-31 01:20:00,
2013-05-30 20:25:00,67.8,62.8,29.50,SSW,197,5.0,7.0,84,0.00,CLR,,0.09,WeatherDisplay:10.37,2013-05-31 01:25:00,
2013-05-30 20:30:00,67.6,62.9,29.50,South,190,3.0,6.0,85,0.00,CLR,,0.09,WeatherDisplay:10.37,2013-05-31 01:30:00,
2013-05-30 20:35:00,67.3,62.6,29.50,SSW,206,3.0,10.0,85,0.00,CLR,,0.09,WeatherDisplay:10.37,2013-05-31 01:35:00,
2013-05-30 20:40:00,67.1,62.8,29.50,SSW,207,3.0,6.0,86,0.00,CLR,,0.09,WeatherDisplay:10.37,2013-05-31 01:40:00,
2013-05-30 20:45:00,67.1,62.8,29.51,SSW,202,3.0,6.0,86,0.00,CLR,,0.09,WeatherDisplay:10.37,2013-05-31 01:45:00,
2013-05-30 20:50:00,66.9,62.6,29.51,SSW,198,6.0,9.0,86,0.01,RA,,0.10,WeatherDisplay:10.37,2013-05-31 01:50:00,
2013-05-30 20:55:00,66.8,62.5,29.51,South,189,3.0,10.0,86,0.02,RA,,0.11,WeatherDisplay:10.37,2013-05-31 01:55:00,
2013-05-30 21:00:00,66.8,62.8,29.50,South,182,1.0,6.0,87,0.01,RA,,0.11,WeatherDisplay:10.37,2013-05-31 02:00:00,
2013-05-30 21:05:00,66.6,62.6,29.50,South,180,2.0,4.0,87,0.00,CLR,,0.11,WeatherDisplay:10.37,2013-05-31 02:05:00,
2013-05-30 21:10:00,66.6,62.9,29.50,South,180,1.0,7.0,88,0.00,CLR,,0.11,WeatherDisplay:10.37,2013-05-31 02:10:00,
2013-05-30 21:15:00,66.4,62.7,29.50,South,180,2.0,6.0,88,0.00,CLR,,0.11,WeatherDisplay:10.37,2013-05-31 02:15:00,
2013-05-30 21:20:00,66.3,63.0,29.50,South,180,2.0,4.0,89,0.00,CLR,,0.11,WeatherDisplay:10.37,2013-05-31 02:20:00,
2013-05-30 21:25:00,66.1,62.8,29.50,South,180,3.0,5.0,89,0.00,CLR,,0.11,WeatherDisplay:10.37,2013-05-31 02:25:00,
2013-05-30 21:30:00,66.0,62.7,29.50,South,180,1.0,5.0,89,0.00,CLR,,0.11,WeatherDisplay:10.37,2013-05-31 02:30:00,
2013-05-30 21:35:00,65.8,62.5,29.50,South,180,1.0,5.0,89,0.00,CLR,,0.11,WeatherDisplay:10.37,2013-05-31 02:35:00,
2013-05-30 21:40:00,65.6,62.3,29.50,South,180,2.0,5.0,89,0.00,CLR,,0.11,WeatherDisplay:10.37,2013-05-31 02:40:00,
2013-05-30 21:45:00,65.6,62.3,29.51,South,180,3.0,5.0,89,0.00,CLR,,0.11,WeatherDisplay:10.37,2013-05-31 02:45:00,
2013-05-30 21:50:00,65.5,62.2,29.51,South,180,3.0,9.0,89,0.00,CLR,,0.11,WeatherDisplay:10.37,2013-05-31 02:50:00,
2013-05-30 21:55:00,65.3,62.0,29.51,South,180,3.0,6.0,89,0.00,CLR,,0.11,WeatherDisplay:10.37,2013-05-31 02:55:00,
2013-05-30 22:00:00,65.2,62.2,29.52,South,180,3.0,7.0,90,0.00,CLR,,0.11,WeatherDisplay:10.37,2013-05-31 03:00:00,
2013-05-30 22:05:00,65.0,62.0,29.52,South,180,3.0,10.0,90,0.00,CLR,,0.11,WeatherDisplay:10.37,2013-05-31 03:05:00,
2013-05-30 22:10:00,65.0,62.0,29.52,South,172,2.0,6.0,90,0.00,CLR,,0.11,WeatherDisplay:10.37,2013-05-31 03:10:00,
2013-05-30 22:15:00,65.0,62.0,29.52,SSE,165,3.0,5.0,90,0.00,CLR,,0.11,WeatherDisplay:10.37,2013-05-31 03:15:00,
2013-05-30 22:20:00,64.8,62.1,29.52,South,176,3.0,7.0,91,0.00,CLR,,0.11,WeatherDisplay:10.37,2013-05-31 03:20:00,
2013-05-30 22:25:00,64.8,61.8,29.52,South,176,3.0,9.0,90,0.00,CLR,,0.11,WeatherDisplay:10.37,2013-05-31 03:25:00,
2013-05-30 22:30:00,64.8,61.8,29.53,South,175,3.0,7.0,90,0.00,CLR,,0.11,WeatherDisplay:10.37,2013-05-31 03:30:00,
2013-05-30 22:35:00,64.8,61.8,29.53,South,180,2.0,10.0,90,0.00,CLR,,0.11,WeatherDisplay:10.37,2013-05-31 03:35:00,
2013-05-30 22:40:00,64.8,61.8,29.53,South,180,3.0,6.0,90,0.00,CLR,,0.11,WeatherDisplay:10.37,2013-05-31 03:40:00,
2013-05-30 22:45:00,64.7,61.7,29.53,South,173,3.0,10.0,90,0.00,CLR,,0.11,WeatherDisplay:10.37,2013-05-31 03:45:00,
2013-05-30 22:50:00,64.7,61.7,29.53,South,174,2.0,10.0,90,0.00,CLR,,0.11,WeatherDisplay:10.37,2013-05-31 03:50:00,
2013-05-30 22:55:00,64.7,61.4,29.53,South,176,3.0,10.0,89,0.00,CLR,,0.11,WeatherDisplay:10.37,2013-05-31 03:55:00,
2013-05-30 23:00:00,64.7,61.4,29.53,South,175,3.0,9.0,89,0.00,CLR,,0.11,WeatherDisplay:10.37,2013-05-31 04:00:00,
2013-05-30 23:05:00,64.7,61.4,29.53,South,179,3.0,6.0,89,0.00,CLR,,0.11,WeatherDisplay:10.37,2013-05-31 04:05:00,
2013-05-30 23:10:00,64.5,61.2,29.53,South,180,2.0,6.0,89,0.00,CLR,,0.11,WeatherDisplay:10.37,2013-05-31 04:10:00,
2013-05-30 23:15:00,64.3,61.0,29.53,South,180,3.0,6.0,89,0.00,CLR,,0.11,WeatherDisplay:10.37,2013-05-31 04:15:00,
2013-05-30 23:20:00,64.2,60.9,29.53,South,180,3.0,5.0,89,0.00,CLR,,0.11,WeatherDisplay:10.37,2013-05-31 04:20:00,
2013-05-30 23:25:00,64.0,60.7,29.53,South,180,3.0,5.0,89,0.00,CLR,,0.11,WeatherDisplay:10.37,2013-05-31 04:25:00,
2013-05-30 23:30:00,63.9,60.6,29.53,South,180,2.0,7.0,89,0.00,CLR,,0.11,WeatherDisplay:10.37,2013-05-31 04:30:00,
2013-05-30 23:35:00,63.9,60.6,29.53,South,176,3.0,7.0,89,0.00,CLR,,0.11,WeatherDisplay:10.37,2013-05-31 04:35:00,
2013-05-30 23:40:00,64.0,60.7,29.53,SSE,168,6.0,9.0,89,0.00,CLR,,0.11,WeatherDisplay:10.37,2013-05-31 04:40:00,
2013-05-30 23:45:00,64.0,60.7,29.53,South,173,3.0,9.0,89,0.00,CLR,,0.11,WeatherDisplay:10.37,2013-05-31 04:45:00,
2013-05-30 23:50:00,64.0,60.7,29.53,South,180,5.0,9.0,89,0.00,CLR,,0.11,WeatherDisplay:10.37,2013-05-31 04:50:00,
2013-05-30 23:55:00,63.9,60.6,29.53,South,180,3.0,7.0,89,0.00,CLR,,0.11,WeatherDisplay:10.37,2013-05-31 04:55:00,